Showing default

DMC 3-FM3, 40717

Orbit data source: Space-Track

DMC 3-FM3, 40717 is a payload satellite owned by DMCii (UK) in SSO that was launched on Fri, 10 Jul 2015 UTC via a PSLV-XL launch vehicle from the Sirharikota (SRI). Payloads include a variety of satellites, spacecraft, and rockets equipped with specific instruments for various scientific and technological missions. These include communications satellites like Starlink; space stations such as the ISS; scientific satellites like the Hubble; Earth observation satellites from companies like Planet Labs, Umbra, and HawkEye 360; GPS; miniature CubeSats for education and research; and military/defense satellites.

Loading next visibility...
DMC 3-FM3 details
Identifier
40717, 2015-032C
Orbit
SSO
Last TLE update7 hours ago
Origin
Flag of UKDMCii (UK)
ManufacturerSSTL (Astrium)
MissionOperational Commercial Imaging
Bus & MotorSSTL-300S1, Unknown motor
Mass447 kg wet, 435 kg dry
Launch date (UTC)
2015-07-10 (9 years ago)
Launch vehicle
PSLV-XL
Launch site
Sirharikota (SRI)
Object type
Payload
Rocket body
Debris
Shape & HBRHept Cyl + Cyl, 2.5 m
Radar Cross Section2.356 m², Large (>1 m²)

Expand to show TLE details & history

TLE from 7 hours ago
0 DMC 3-FM3
1 40717U 15032C   24361.24387706  .00001904  00000-0  23228-3 0  9997
2 40717  97.7328 236.8742 0009816  33.3875 326.7957 14.84451419510064
Epoch: 2024-12-26T05:51Z
Definitive object data (Epoch: 2024-12-26T05:51:10.977Z)
Latitude-0.00006°
Longitude53.85241°
Altitude612.598 km
Speed7.556 km/s
True Right ascension15h 47m 29s
True Declination0° 00' 00"
Sunlit
Object was in daylight at TLE epoch
Visualization TLE readout
Latitude26.58926°
Longitude-121.98241°
Altitude622.147 km
Speed7.548 km/s
Apparent Right ascension02h 27m 56s
Apparent Declination-5° 30' 31"
Sunlit
Object is in full shadow
Visualization observer readout
Local Sidereal Time12:22:16
Azimuth312.262° NW
Elevation-45.491°
Doppler factor1
Orbital elements
Apogee altitude619.198 km
Perigee altitude605.474 km
Semi-major axis6,990.473 km
Eccentricity0.0009816
Inclination97.7328°
RAAN236.8742°
Arg. of periapsis33.3875°
True anomaly326.73404°
Mean anomaly326.7957°
Eccentric anomaly326.76488°
Mean motion3.7135 °/min
BSTAR0.00023228
Orbital period96.94 mins
Loading maneuver chart data...
Loading historical data...
Loading historical data...
Loading historical data...
Loading historical data...
Loading historical data...
Loading historical data...
Loading historical data...

DMC 3-FM3 Visibility forecast

Observer location: undefined°, undefined

Span
Click to sort rows by Start time (UTC) header in descending order
Start Az.
Max El. time (UTC)
Max El. Az.
Max El.
End time (UTC)
End Az.
8 mins2024-12-26 15:40:40.230Z152.329° SSE2024-12-26 15:44:40.230Z70.172° E40.242°2024-12-26 15:48:40.230Z356.275° N
7 mins2024-12-27 05:04:40.230Z0.517° NNE2024-12-27 05:07:40.230Z270.874° WNW41.079°2024-12-27 05:11:40.230Z205.48° SW
|